IRIDIUM 33 DEB, 33887

Orbit data source: Space-Track

IRIDIUM 33 DEB, 33887 is space debris in LEO originally from a launch on Sun, 14 Sep 1997 UTC launched from the Tyuratam Missile And Space Complex (TTMTR). The debris from Iridium 33, an American commercial communications satellite, has been tracked extensively since its accidental collision with the defunct Russian satellite Cosmos 2251 in 2009. This event, occurring at high speed in low Earth orbit (LEO), generated thousands of pieces of space debris, significantly increasing the risk of further collisions. The Iridium 33 debris cloud has impacted space traffic management and orbital debris mitigation strategies, making it a subject of ongoing study in space situational awareness.

Loading next visibility...
Identifier
33887, 1997-051BG
Orbit
LEO
Country
Flag of USUS
Related business
Manufacturer
Unknown
Mission
Spacecraft
Bus & Motor
Unknown
Mass
Unknown
Launch date (UTC)
1997-09-14 (29 years ago)
Launch vehicle
Unknown
Launch site
Tyuratam Missile And Space Complex (TTMTR)
Object type
Payload
Rocket body
Debris
Shape & HBR
Unknown shape, 0.2 m
Radar Cross Section
Small (<0.1 m²)

Expand to show TLE details & history
Last TLE update: 6 hours ago

TLE from 6 hours ago
0 IRIDIUM 33 DEB
1 33887U 97051BG  26120.57310183  .00000418  00000-0  13341-3 0  9998
2 33887  86.3001 303.5796 0007624 133.1090 297.9296 14.37362830901593
Epoch: 2026-04-30T13:45Z
TLE epoch observation values (Epoch: 2026-04-30T13:45:15.998Z)
Latitude
70.69051°
Longitude
-110.67681°
Altitude
776.968 km
Speed
7.473 km/s
True Right ascension
20h 56m 37s
True Declination
70° 34' 60"
Sunlit
Object was in daylight at epoch
Visualization orbit readout
Latitude
Unknown
Longitude
Unknown
Altitude
Unknown
Speed
Unknown
Apparent Right ascension
Unknown
Apparent Declination
Unknown
Sunlit
N/A
Visualization observer readout
Local Sidereal Time
03:08:44
Azimuth
Unknown
Elevation
Unknown
Doppler factor
Unknown
Orbital elements
Apogee altitude
769.632 km
Perigee altitude
758.742 km
Semi-major axis
7,142.324 km
Eccentricity
0.00076
Inclination
86.3001°
RAAN
303.5796°
Arg. of periapsis
133.109°
True anomaly
297.85238°
Mean anomaly
297.9296°
Eccentric anomaly
297.89099°
Mean motion
3.5957 °/min
Orbital period
100.12 mins
BSTAR
0.00013341
Loading maneuver chart data...
Computing Atmospheric mass density...

Documentation

Showing up to 5 results
|